Probability
13 35 42 48 45 48 58 61 71 74 65 61 68 68 65 68 68 68 65 68 68 68 65 65 68 65 68 68 74 74 74 74 77 84 77 81 81 74 71 65 65 48 71
10 29 35 45 45 55 55 61 65 61 55 55 58 61 55 52 61 65 65 65 61 65 65 61 58 65 58 68 74 71 71 58 65 61 68 77 77 77 68 68 61 65 61
13 29 32 45 42 42 45 48 45 48 48 52 45 52 48 48 55 52 58 55 58 55 55 55 52 55 48 55 55 71 68 65 48 48 48 48 61 61 71 65 65 71 61
10 19 19 39 35 29 35 32 39 39 35 42 39 42 45 48 48 55 58 55 55 48 45 39 42 35 42 45 42 52 52 48 39 32 35 39 48 48 52 68 71 71 61
10 19 32 39 32 26 23 26 29 29 32 35 39 35 35 39 42 48 55 52 48 35 32 32 35 39 35 35 39 42 45 42 26 26 32 65 81 68 55 58 65 71 52
10 13 29 29 19 16 23 23 19 23 29 29 42 39 35 32 35 39 32 39 35 39 35 32 29 32 29 29 32 39 39 26 19 23 29 42 52 65 58 55 58 65 61
13 13 19 29 16 16 16 13 19 19 23 29 29 32 32 29 29 26 29 29 32 23 23 23 23 23 32 29 29 29 26 23 13 19 26 29 48 58 52 58 55 55 52
13 6 16 23 16 19 13 13 13 13 16 23 23 26 23 19 19 23 23 26 19 23 16 23 19 23 26 32 29 29 19 16 13 10 23 32 39 45 45 52 48 52 52
6 6 13 23 16 16 13 10 13 13 10 13 16 19 19 23 23 23 23 16 16 16 13 16 23 19 16 26 23 16 10 19 10 16 13 29 39 39 42 42 48 45 52
3 3 6 6 6 10 13 10 10 10 6 6 6 13 16 19 19 16 16 13 13 13 6 13 13 13 23 19 13 10 3 6 6 10 16 23 39 35 39 42 35 39 48
0 0 3 3 3 6 10 6 6 10 6 3 3 3 6 3 3 3 3 13 10 10 10 19 13 13 16 10 10 3 3 6 3 10 13 19 26 32 32 29 23 19 32
0 0 3 3 0 0 6 6 3 0 0 0 0 0 0 0 3 3 3 10 10 6 10 10 10 10 6 10 3 3 6 6 6 6 10 16 16 19 23 26 23 16 26
3 0 3 3 0 0 0 0 0 0 0 0 0 0 0 0 0 0 3 3 3 3 3 10 10 6 6 10 6 6 10 3 3 3 6 16 13 16 16 16 26 23 23
3 3 0 0 0 0 0 0 0 0 0 0 0 0 0 0 0 0 0 3 3 3 10 6 6 3 3 3 3 3 3 3 0 10 16 19 23 23 19 16 16 26 16
3 3 0 0 0 0 0 0 0 0 0 0 0 0 0 0 0 0 0 0 0 3 3 3 3 3 6 6 3 3 0 0 0 3 16 13 19 32 19 16 13 19 19
3 3 0 0 0 0 0 0 0 0 0 0 0 0 0 0 0 0 0 0 0 0 3 3 0 6 6 6 3 0 0 0 0 0 10 10 19 26 23 13 6 16 19
3 0 0 0 0 0 0 0 0 0 0 0 0 0 0 0 0 0 0 0 0 0 0 3 3 6 6 0 0 0 3 3 3 3 3 6 10 3 10 13 6 13 23
0 0 0 0 0 0 0 0 0 0 0 0 0 0 0 0 0 0 0 0 0 0 0 6 3 3 6 3 0 0 3 3 3 3 6 3 6 3 10 6 6 6 10
0 0 0 0 0 0 0 0 0 0 0 0 0 0 0 0 0 0 0 0 0 0 3 3 3 6 3 0 0 0 3 3 0 0 0 0 0 3 6 3 3 3 3
0 0 0 0 0 0 0 0 0 0 0 0 0 0 0 0 0 0 0 0 0 0 0 3 6 6 0 0 0 0 3 0 0 0 0 0 0 0 0 0 0 3 0
3 0 0 0 0 0 0 0 0 0 0 0 0 0 0 0 0 0 0 0 0 0 0 3 3 0 0 0 0 3 3 0 0 0 0 0 0 0 0 3 0 0 3
3 3 0 0 0 0 0 0 0 0 0 0 0 0 0 0 0 0 0 0 0 0 3 3 3 0 0 0 0 3 3 0 0 0 0 0 3 0 0 0 0 3 3
3 3 0 0 0 0 0 0 0 0 0 0 0 0 0 0 0 0 0 3 0 0 3 3 3 3 3 0 3 0 0 3 0 0 0 0 3 6 3 6 3 3 0
3 3 0 3 0 0 0 0 0 0 0 0 0 0 0 0 0 0 0 0 3 3 3 3 3 3 0 3 3 0 0 3 0 0 3 0 0 3 6 3 3 0 3
3 3 3 3 0 0 0 0 0 0 0 0 0 0 0 0 0 0 0 0 0 3 3 3 3 0 3 3 0 0 3 3 0 0 0 0 0 3 3 3 3 3 3
3 3 3 3 3 0 0 0 0 0 0 0 0 0 0 0 0 0 0 0 0 0 0 6 3 3 3 3 0 0 3 3 0 0 0 3 3 3 0 0 0 3 3
Height
5904 5904 5903 5903 5903 5903 5903 5902 5902 5902 5901 5901 5901 5901 5900 5900 5900 5900 5900 5900 5899 5899 5899 5899 5899 5899 5899 5899 5899 5899 5899 5899 5900 5900 5900 5900 5900 5900 5900 5900 5900 5900 5899
5904 5904 5903 5903 5903 5903 5903 5903 5903 5902 5902 5901 5901 5901 5901 5901 5901 5901 5900 5900 5900 5900 5899 5899 5899 5899 5899 5899 5899 5899 5900 5899 5900 5900 5900 5900 5900 5900 5900 5900 5900 5899 5899
5903 5903 5903 5903 5903 5903 5903 5903 5903 5903 5902 5902 5902 5902 5902 5901 5901 5901 5901 5901 5900 5900 5900 5899 5899 5899 5899 5899 5899 5899 5899 5899 5900 5899 5899 5899 5899 5899 5900 5900 5899 5899 5899
5903 5903 5903 5903 5903 5904 5904 5903 5903 5903 5903 5902 5902 5902 5902 5902 5902 5902 5901 5901 5900 5900 5900 5899 5899 5899 5899 5899 5899 5899 5899 5899 5899 5899 5899 5899 5899 5899 5899 5899 5899 5899 5899
5903 5903 5903 5903 5903 5903 5903 5903 5903 5903 5903 5903 5903 5903 5903 5902 5902 5902 5902 5901 5901 5900 5900 5899 5899 5899 5899 5898 5898 5898 5898 5898 5898 5898 5898 5898 5898 5898 5898 5898 5898 5898 5898
5902 5903 5903 5903 5903 5903 5903 5903 5903 5903 5903 5903 5903 5903 5903 5903 5902 5902 5902 5901 5901 5900 5900 5899 5899 5898 5898 5898 5898 5898 5898 5898 5897 5897 5897 5897 5897 5897 5897 5897 5897 5897 5897
5902 5902 5902 5903 5903 5903 5903 5903 5903 5903 5903 5903 5903 5903 5903 5903 5903 5902 5902 5901 5900 5900 5899 5899 5898 5898 5898 5897 5897 5897 5897 5896 5896 5896 5896 5896 5895 5895 5896 5896 5896 5896 5896
5901 5901 5902 5902 5902 5902 5902 5903 5903 5903 5903 5903 5903 5903 5903 5903 5903 5902 5902 5901 5900 5900 5899 5898 5898 5897 5897 5896 5896 5896 5896 5895 5895 5895 5895 5894 5894 5894 5894 5894 5894 5895 5895
5900 5901 5901 5901 5901 5902 5902 5902 5902 5902 5902 5903 5903 5903 5903 5902 5902 5902 5901 5900 5900 5899 5898 5898 5897 5897 5896 5896 5895 5895 5894 5894 5893 5893 5893 5893 5892 5892 5892 5893 5893 5893 5893
5899 5900 5900 5900 5901 5901 5901 5901 5902 5902 5902 5902 5902 5902 5902 5902 5902 5901 5901 5900 5899 5899 5898 5897 5897 5896 5895 5895 5894 5893 5893 5892 5892 5891 5891 5891 5891 5891 5891 5891 5891 5891 5892
5898 5898 5899 5899 5900 5900 5900 5900 5901 5901 5901 5902 5901 5901 5901 5901 5901 5901 5900 5899 5899 5898 5897 5896 5896 5895 5894 5894 5893 5892 5891 5891 5890 5890 5889 5889 5889 5889 5889 5889 5889 5890 5890
5896 5897 5898 5898 5898 5899 5899 5899 5900 5900 5900 5901 5901 5901 5901 5900 5900 5900 5899 5899 5898 5897 5896 5896 5895 5894 5893 5893 5892 5891 5890 5889 5888 5888 5887 5887 5887 5887 5887 5887 5887 5888 5888
5894 5895 5896 5896 5897 5897 5898 5898 5898 5899 5899 5900 5900 5900 5900 5900 5900 5899 5899 5898 5897 5896 5896 5895 5894 5893 5892 5891 5890 5889 5888 5888 5887 5886 5886 5885 5885 5885 5885 5885 5885 5886 5886
5893 5894 5894 5895 5895 5896 5896 5897 5897 5898 5898 5898 5899 5899 5899 5899 5899 5898 5898 5897 5897 5896 5895 5894 5893 5892 5891 5890 5889 5888 5887 5886 5885 5884 5884 5883 5883 5883 5882 5883 5883 5884 5884
5890 5891 5892 5893 5893 5894 5895 5895 5896 5896 5897 5897 5898 5898 5898 5898 5898 5897 5897 5896 5896 5895 5894 5893 5892 5891 5889 5888 5887 5886 5886 5885 5884 5883 5882 5881 5881 5881 5880 5880 5881 5881 5882
5888 5889 5890 5891 5891 5892 5893 5894 5894 5895 5896 5896 5897 5897 5897 5897 5897 5896 5896 5895 5894 5894 5893 5892 5891 5890 5888 5887 5886 5885 5884 5883 5882 5881 5880 5879 5879 5879 5878 5878 5878 5879 5879
5886 5887 5887 5888 5889 5890 5891 5892 5892 5893 5894 5894 5895 5895 5895 5895 5895 5895 5894 5894 5893 5892 5891 5891 5890 5888 5887 5886 5885 5884 5883 5881 5880 5879 5878 5878 5877 5876 5876 5876 5876 5876 5877
5883 5884 5885 5886 5887 5888 5889 5890 5891 5891 5892 5893 5893 5893 5893 5893 5893 5893 5893 5892 5892 5891 5890 5889 5888 5887 5886 5885 5883 5882 5881 5880 5879 5878 5877 5876 5875 5874 5874 5874 5874 5874 5874
5880 5882 5883 5884 5885 5886 5887 5888 5889 5890 5890 5891 5891 5892 5892 5892 5892 5891 5891 5890 5890 5889 5889 5888 5887 5886 5884 5883 5882 5881 5880 5878 5877 5876 5875 5874 5873 5872 5872 5872 5872 5872 5872
5877 5879 5880 5881 5882 5883 5885 5886 5887 5887 5888 5889 5889 5890 5890 5890 5890 5890 5889 5889 5888 5888 5887 5886 5885 5884 5883 5882 5881 5879 5878 5877 5876 5875 5874 5873 5871 5870 5870 5869 5869 5870 5870
5875 5876 5877 5879 5880 5881 5882 5883 5884 5885 5886 5887 5887 5887 5888 5888 5888 5888 5887 5887 5887 5886 5886 5885 5884 5883 5882 5880 5879 5878 5877 5875 5874 5873 5872 5871 5869 5868 5868 5868 5867 5868 5867
5872 5873 5875 5876 5877 5878 5880 5881 5882 5883 5884 5884 5885 5885 5885 5886 5886 5886 5886 5885 5885 5885 5884 5883 5883 5882 5880 5879 5878 5876 5875 5875 5873 5872 5870 5869 5868 5867 5866 5866 5865 5865 5865
5869 5870 5872 5873 5874 5876 5877 5878 5879 5880 5881 5882 5882 5883 5883 5883 5884 5884 5883 5883 5883 5883 5883 5882 5881 5880 5879 5878 5876 5875 5874 5873 5872 5870 5869 5868 5867 5865 5864 5864 5863 5862 5862
5866 5868 5869 5870 5871 5873 5875 5876 5877 5878 5879 5879 5880 5880 5881 5881 5882 5882 5881 5882 5882 5881 5881 5880 5880 5879 5878 5877 5875 5874 5872 5871 5870 5869 5868 5866 5865 5864 5863 5862 5861 5860 5859
5863 5864 5866 5867 5869 5870 5872 5873 5874 5875 5876 5877 5877 5878 5878 5879 5879 5880 5879 5879 5880 5880 5879 5879 5878 5877 5876 5875 5874 5872 5871 5869 5868 5867 5866 5865 5864 5863 5861 5860 5858 5857 5857
5860 5862 5863 5865 5866 5867 5869 5870 5871 5873 5873 5874 5875 5875 5876 5877 5877 5877 5877 5877 5877 5878 5877 5877 5876 5875 5875 5873 5872 5871 5870 5868 5867 5865 5864 5863 5862 5861 5859 5858 5856 5855 5853
Wind_Speed
5 5 5 4 4 3 4 4 5 6 6 6 5 5 6 6 6 6 6 5 5 4 3 3 3 3 2 2 2 2 2 2 2 2 2 3 3 3 3 3 3 2 2
5 5 4 4 4 4 4 4 4 5 5 5 5 5 5 5 6 5 5 4 4 3 3 2 2 1 1 2 2 2 2 2 2 3 3 4 4 4 4 4 4 4 3
5 5 4 4 4 4 3 3 4 4 5 5 5 5 5 4 4 5 5 4 4 4 3 2 1 0 1 1 2 2 3 3 3 4 5 5 5 5 5 5 5 5 5
5 4 3 2 3 3 3 3 4 4 4 5 5 4 3 3 3 3 4 3 3 3 3 2 1 0 1 1 2 2 3 4 5 5 6 6 6 6 6 6 6 6 6
5 4 3 2 2 3 3 3 3 4 4 4 4 3 3 2 2 2 3 3 3 3 2 2 1 1 1 1 2 3 3 4 5 6 6 7 7 7 7 7 7 7 7
5 4 4 3 2 3 3 3 2 3 3 3 3 2 2 2 1 2 2 3 3 3 2 2 1 1 1 2 2 3 4 4 5 6 6 7 8 8 8 8 8 8 8
5 5 4 4 3 3 3 3 2 2 3 3 3 2 1 1 1 1 2 2 3 3 3 2 2 2 2 3 3 4 5 6 6 6 7 8 9 9 9 9 9 9 9
6 5 5 5 5 4 3 3 3 2 3 3 2 2 1 0 0 1 1 2 3 3 3 3 3 3 4 4 5 6 7 7 7 7 8 8 9 9 10 10 10 10 10
7 6 6 6 6 5 4 4 3 2 3 2 2 1 2 2 2 2 2 3 4 4 4 3 4 4 5 5 6 6 7 8 8 8 8 9 10 10 10 10 10 11 11
8 8 7 7 7 7 6 5 4 3 3 3 3 2 2 2 2 2 3 3 4 4 4 4 5 5 6 6 7 7 7 7 8 8 9 9 10 10 10 10 10 11 11
9 8 7 6 7 7 7 6 6 5 5 4 4 4 3 3 3 2 3 4 4 5 5 5 5 6 6 7 7 7 7 7 7 8 8 9 9 10 10 10 10 10 11
10 9 8 8 8 8 8 8 7 7 6 6 5 5 4 3 4 3 4 4 5 5 6 6 6 6 6 6 6 7 6 7 7 8 9 9 10 10 10 11 11 11 11
11 10 10 10 9 9 9 8 8 8 7 7 6 5 4 4 4 3 4 5 5 6 6 6 7 7 6 6 6 7 6 7 8 8 9 10 10 10 11 11 12 11 11
12 11 11 11 10 11 10 9 9 8 8 8 7 6 5 5 5 4 4 5 5 6 6 6 7 6 6 6 6 7 7 7 8 8 9 10 11 11 11 11 11 11 11
13 12 12 12 11 11 10 9 10 9 9 8 7 6 6 5 5 5 5 5 6 6 6 6 6 6 6 6 7 7 7 7 8 8 9 10 11 11 11 11 11 11 11
13 13 12 12 12 11 11 11 11 11 10 9 8 7 6 6 6 6 6 6 6 7 7 7 7 7 7 6 6 7 7 7 8 8 8 9 10 11 11 11 11 12 11
14 13 13 12 12 12 12 12 11 11 10 9 8 8 7 7 6 6 6 6 6 7 7 7 7 7 6 6 6 7 7 7 8 9 9 9 10 11 12 12 11 12 12
15 14 13 12 12 13 13 12 11 10 10 9 9 8 7 7 7 7 6 7 7 7 7 7 7 7 7 7 7 7 7 8 8 8 9 9 10 10 11 12 12 12 12
15 14 14 13 13 13 13 12 11 10 10 9 8 8 7 7 7 7 7 7 8 7 8 8 7 7 7 7 7 7 8 8 8 9 9 9 10 10 11 12 12 11 12
15 15 14 14 14 14 13 12 11 11 10 10 9 9 8 8 8 8 7 7 8 8 8 8 7 7 7 7 7 8 8 8 9 9 9 9 9 10 10 11 11 11 11
15 15 15 14 14 14 13 12 12 12 11 11 11 10 9 8 8 8 8 8 8 8 8 7 7 7 7 7 8 8 8 8 9 9 10 9 9 9 9 10 11 11 11
15 16 15 15 15 14 14 13 13 13 12 11 11 11 10 9 9 9 9 8 8 7 7 7 7 6 7 7 8 8 8 8 9 9 9 9 9 9 9 10 11 12 12
15 16 16 16 16 15 15 14 13 13 12 11 11 11 10 10 10 9 9 8 8 8 7 7 7 6 7 7 8 8 8 8 9 9 9 9 9 10 10 11 11 12 13
16 16 16 16 16 15 15 14 13 12 12 11 11 11 10 10 10 9 9 9 8 8 7 7 7 7 7 7 8 8 8 8 9 9 8 9 9 9 10 10 11 12 12
17 16 16 16 16 16 15 14 14 14 13 12 12 12 12 11 11 10 9 9 9 8 8 8 7 7 7 7 8 8 8 8 8 8 8 8 9 9 10 11 12 12 13
16 16 16 16 16 16 15 14 14 14 13 13 12 12 12 12 11 10 9 9 9 8 8 8 7 7 7 8 8 8 8 8 8 8 9 9 9 10 11 12 13 13 14
Wind_Direction
148 143 136 126 125 125 124 119 104 105 105 101 95 95 93 89 86 83 79 77 77 74 82 89 95 115 123 125 146 157 165 176 194 215 210 204 204 209 217 208 190 191 189
151 150 137 137 129 129 131 121 108 112 113 107 101 104 104 98 89 83 75 73 74 71 67 85 97 122 139 151 174 189 203 209 221 233 235 231 230 228 227 223 218 217 222
154 150 141 148 144 143 141 128 117 116 118 116 111 111 113 101 90 79 70 69 73 68 61 69 94 154 184 197 221 228 236 234 232 239 243 241 237 238 237 236 230 227 226
163 159 164 167 162 168 161 138 126 123 124 124 121 115 113 98 85 72 60 62 64 58 53 54 60 323 251 265 251 244 246 248 249 245 243 243 245 245 241 241 237 234 230
172 172 170 172 179 181 164 149 137 138 131 130 126 119 109 99 80 61 48 42 35 35 32 24 345 312 295 293 258 247 253 258 255 248 244 246 246 246 245 245 239 235 240
186 186 183 188 178 174 164 164 161 157 148 146 142 134 111 89 61 51 38 22 14 12 3 356 318 300 307 300 276 264 265 264 257 251 249 248 246 243 245 247 242 242 244
195 198 200 199 200 205 191 188 182 174 165 157 156 154 137 92 55 44 34 18 7 358 346 334 311 291 296 295 284 275 270 265 261 255 255 254 251 246 245 248 244 244 244
199 203 200 198 211 210 205 213 215 189 173 164 176 183 191 216 350 0 2 355 358 350 336 332 316 306 292 293 286 280 276 268 264 262 262 262 256 251 247 245 242 244 244
208 210 209 212 214 214 220 220 217 197 186 183 197 213 241 257 292 305 328 331 337 339 335 331 322 310 299 293 288 283 278 265 263 265 263 260 254 250 250 246 246 246 244
213 218 221 219 218 222 224 218 219 218 220 221 217 241 269 276 286 299 312 320 323 329 325 317 314 310 303 295 292 290 281 270 269 266 263 262 258 253 250 249 249 246 243
218 224 225 226 227 233 234 233 230 235 236 234 232 239 264 277 284 294 311 317 318 320 317 316 314 312 304 299 296 291 280 271 269 265 260 259 258 255 250 250 252 248 245
223 228 232 234 235 236 236 235 231 234 239 239 237 241 262 281 291 298 312 314 315 320 321 319 313 308 302 299 296 291 282 271 266 264 259 258 259 258 254 251 252 251 250
228 230 232 232 232 235 237 235 233 233 239 237 232 243 254 269 280 293 304 311 313 317 321 319 314 307 300 297 294 290 282 275 270 266 262 259 259 259 257 252 251 253 253
229 230 235 235 234 236 239 234 234 238 238 233 236 240 256 263 269 282 291 301 305 310 314 317 316 307 303 299 295 289 286 283 277 272 265 261 261 261 260 257 252 253 253
232 232 237 235 234 235 236 239 238 237 232 233 236 237 254 260 261 264 277 287 295 301 304 305 308 305 304 299 294 290 286 284 281 275 269 263 263 263 263 262 255 254 256
234 235 237 233 233 234 236 236 234 233 233 238 241 247 258 262 260 262 271 280 289 294 298 301 303 302 303 301 298 295 290 284 281 277 273 268 265 264 263 262 258 256 259
235 236 237 233 234 234 236 235 234 234 235 239 246 253 258 261 263 264 272 281 289 293 296 301 301 302 300 299 299 297 290 285 281 278 274 270 267 264 263 264 261 257 258
236 235 236 234 236 236 236 237 237 235 238 241 246 249 255 260 261 266 270 280 288 288 291 297 298 301 300 299 297 294 290 286 283 280 279 277 273 268 266 265 264 261 260
233 234 236 237 235 235 233 234 233 232 237 239 244 246 254 261 265 269 271 280 284 285 290 292 293 300 305 303 297 296 295 290 287 284 281 279 275 271 266 266 265 262 264
233 235 237 237 235 232 231 232 233 235 238 240 246 246 251 259 268 274 272 277 281 283 289 291 295 299 304 304 301 300 299 295 291 286 282 277 274 273 269 266 267 267 267
232 232 234 235 234 233 233 234 236 238 241 245 247 246 250 259 268 272 274 276 278 281 285 290 295 302 308 308 305 304 300 297 293 289 285 278 278 275 271 269 270 270 269
234 231 234 238 236 236 236 237 240 241 242 246 248 245 249 256 263 268 270 270 273 277 282 289 297 304 311 313 310 306 301 298 296 295 292 288 282 278 277 275 273 272 273
236 234 234 236 236 236 236 238 243 239 241 247 243 240 246 253 259 265 269 265 267 272 278 287 293 301 309 312 311 307 302 298 297 298 295 292 290 284 278 274 273 273 274
237 236 237 238 234 234 234 236 238 240 243 249 246 245 245 248 254 261 261 261 262 267 275 281 286 292 300 307 309 308 306 302 299 296 293 289 288 289 286 282 279 276 276
237 238 241 238 236 235 236 238 239 244 246 249 251 253 253 252 252 253 256 260 259 264 272 276 280 286 295 304 308 311 310 307 302 299 293 292 293 292 290 287 288 283 280
237 238 241 240 239 237 237 241 243 247 246 247 249 251 253 255 251 252 256 259 258 263 271 276 279 282 291 301 306 306 305 306 305 303 299 296 296 295 295 294 293 291 286